Regional Weather Roundup
Issued by NWS

Home | Current Version | Previous Version | Text Only | Print | Product List | Glossary On
Versions: 1 2 3 4 5 6 7 8 9 10 11 12 13 14 15 16 17 18 19 20 21 22 23 24 25 26 27 28 29 30 31 32 33 34 35 36 37 38 39 40 41 42 43 44 45 46 47 48 49 50
782
ASUS43 KIND 240909
RWRIN

WEATHER ROUNDUP FOR INDIANA
NATIONAL WEATHER SERVICE INDIANAPOLIS IN
500 AM EDT THU AUG 24 2017

NOTE: "FAIR" INDICATES FEW OR NO CLOUDS BELOW 12,000 FEET WITH NO
SIGNIFICANT WEATHER AND/OR OBSTRUCTIONS TO VISIBILITY.

* - STATION DOES NOT REPORT WEATHER SUCH AS PRECIPITATION OR FOG.

+ - STATION NOT QUALITY CONTROLLED BY THE NATIONAL WEATHER SERVICE.
    USE DATA WITH CAUTION...ESPECIALLY DEWPOINT AND RELATIVE
    HUMIDITY OBSERVATIONS.

INZ001>003-010>013-019-020-241000-
NORTHWEST INDIANA

CITY           SKY/WX    TMP DP  RH WIND       PRES   REMARKS
GARY /AIRPORT/ CLEAR     53  51  93 CALM      30.06R
KNOX *+        CLEAR     50  50 100 CALM      30.05S
LA PORTE +     CLEAR     51  51  97 CALM      30.06S
MICHIGAN CITY+ CLEAR     52  52 100 CALM      30.06S FOG
MONTICELLO +   PTCLDY    56  55  95 CALM      30.05R
RENSSELAER +   CLEAR     54  50  87 CALM      30.06S
VALPARAISO     CLEAR     54  53  97 CALM      30.06S

$$

LMZ046-743>745-241000-
SOUTHERN LAKE MICHIGAN

STATION/POSITION TIME  TEMP    WIND        PRES    WAVE
                       AIR SEA DIR/SP/G            HT
                 (UTC) (F)     (DEG/KT/KT) (MB)    (FT)
BURNS HARBOR     0840   62     180/  3/  5 1017.9R
MICHIGAN CITY    0840   60     140/  6/  7   N/A
5NW MICH CITY    0900   66 73  160/  6/  8   N/A     2

$$

INZ004-005-014>016-021>024-241000-
NORTH CENTRAL INDIANA

CITY           SKY/WX    TMP DP  RH WIND       PRES   REMARKS
GOSHEN         PTCLDY    51  48  89 CALM      30.06S
LOGANSPORT +   MOCLDY    55  55 100 CALM      30.06S
PERU/GRISSOM   PTCLDY    59  57  94 CALM      30.05R
ROCHESTER +    CLEAR     55  55 100 CALM      30.06S
SOUTH BEND     CLEAR     53  53 100 CALM      30.07R
WARSAW +       CLEAR     52  52 100 CALM      30.06S

$$

INZ006>009-017-018-025>027-241000-
NORTHEAST INDIANA

CITY           SKY/WX    TMP DP  RH WIND       PRES   REMARKS
AUBURN +       CLEAR     52  48  87 CALM      30.06S
FORT WAYNE     PTCLDY    51  48  89 CALM      30.05S
HUNTINGTON +   CLEAR     52  51  95 CALM      30.05S
KENDALLVILLE + CLEAR     49  49 100 CALM      30.06S

$$

INZ028-029-035-036-043>045-051>053-241000-
WEST CENTRAL INDIANA

CITY           SKY/WX    TMP DP  RH WIND       PRES   REMARKS
GREENCASTLE +  CLEAR     52  52 100 CALM      30.06S
LAFAYETTE      CLEAR     54  54 100 CALM      30.05S
TERRE HAUTE    CLEAR     53  51  93 CALM      30.05S

$$

INZ030>032-037>040-046>048-054>057-064-065-241000-
CENTRAL INDIANA

CITY           SKY/WX    TMP DP  RH WIND       PRES   REMARKS
CP ATTERBURY + PTCLDY    52  50  93 CALM      30.05S
FRANKFORT +    CLOUDY    54  52  95 CALM      30.07S FOG
GREENWOOD *+   PTCLDY    77  77 100 CALM      30.05S
INDIANAPOLIS   CLEAR     60  54  80 CALM      30.04S
-EAGLE CREEK   CLEAR     58  53  84 CALM      30.04S
KOKOMO +       MOCLDY    60  57  89 CALM      30.06S
MARION +       CLOUDY    57  55  94 CALM      30.06R
MT COMFORT *+  PTCLDY    52  52 100 CALM      30.05S
SHELBYVILLE    PTCLDY    53  49  86 CALM      30.04S
ZIONSVILLE +   CLEAR     51  51  99 CALM      30.06S

$$

INZ033-034-041-042-049-050-058-059-241000-
EAST CENTRAL INDIANA

CITY           SKY/WX    TMP DP  RH WIND       PRES   REMARKS
MUNCIE         MOCLDY    56  53  90 CALM      30.06R
RICHMOND +     PTCLDY    54  50  87 N3        30.06S

$$

INZ060-061-067>069-081>083-085>088-241000-
SOUTHWEST INDIANA

CITY           SKY/WX    TMP DP  RH WIND       PRES   REMARKS
EVANSVILLE     CLEAR     58  55  90 CALM      30.05R
HUNTINGBURG +  PTCLDY    55  55 100 CALM      30.05R
WASHINGTON +   CLEAR     54  52  94 MISG      30.04S

$$

INZ062-063-066-070>080-084-089>092-241000-
SOUTH CENTRAL AND SOUTHEAST INDIANA

CITY           SKY/WX    TMP DP  RH WIND       PRES   REMARKS
BEDFORD +      CLEAR     54  52  94 CALM      30.04S
BLOOMINGTON    CLEAR     51  49  92 CALM      30.05S
MADISON *+     PTCLDY    54  52  94 CALM      30.05F
NORTH VERNON + CLEAR     52  52 100 NE3       30.05S
SEYMOUR +      CLEAR     54  54 100 CALM      30.04S FOG

$$





USA.gov is the U.S. government's official web portal to all federal, state and local government web resources and services.